Home > Weather > Provo > Past weeks

Flag for U.S.A. Weather for the Past 2 Weeks in Provo, Utah, U.S.A.

Now
25 °F

Ice fog.


Feels Like: 25 °F
Forecast: 23 / 43 °F
Wind: No wind

Location: Provo Municipal

Current Time: Feb 12, 2016 at 5:50:46 PM

Latest Report: Feb 12, 2016 at 3:49 PM


Visibility: 0 mi

Pressure: 30.35 "Hg (25.45 "Hg at 1386m altitude)

Humidity: 86%

Dew point: 21 °F

Location of ProvoLocation

Historic Weather in Provo — Graph

°F

Provo Temperature Yesterday

Maximum temperature yesterday: 27 °F (at 3:56 PM)
Minimum temperature yesterday: 14 °F (at 8:47 PM)
Average temperature yesterday: 19 °F

High & Low Weather Summary for the Past Weeks

 TemperatureHumidityPressure
High43 °F (Jan 30, 4:35 AM)100% (Jan 30, 10:15 PM)30.74 "Hg (Jan 30, 10:15 PM)
Low3 °F (Feb 6, 5:15 AM)55% (Feb 1, 2:51 PM)29.48 "Hg (Feb 1, 4:15 AM)
Average20 °F84%30.28 "Hg
* Reported Jan 28 3:55 PM — Feb 12 3:49 PM, Provo, Weather by CustomWeather, © 2016

Note: Actual official high and low records may vary slightly from our data, if they occured in-between our weather recording intervals... More about our weather records

Advertising

Provo Weather History for the Previous 24 Hours

 ConditionsComfort  
Time TempWeatherWind HumidityBarometerVisibility
3:49 PM
Fri, Feb 12
25 °FIce fog.No wind86%30.35 "Hg0 mi
2:54 PM25 °FIce fog.No wind93%30.35 "Hg0 mi
1:47 PM25 °FIce fog.No wind93%30.37 "Hg0 mi
12:50 PM25 °FIce fog.No wind86%30.40 "Hg0 mi
11:51 AM23 °FIce fog.No wind93%30.43 "Hg0 mi
10:50 AM23 °FIce fog.No wind86%30.44 "Hg0 mi
9:50 AM21 °FIce fog.No wind93%30.44 "Hg0 mi
8:50 AM19 °FIce fog.No wind93%30.44 "Hg0 mi
7:50 AM19 °FIce fog.No wind86%30.44 "Hg0 mi
6:49 AM19 °FIce fog.No wind86%30.43 "Hg0 mi
6:35 AM19 °FIce fog.No wind86%30.42 "Hg0 mi
6:15 AM19 °FIce fog.No wind86%30.42 "Hg0 mi
5:55 AM19 °FIce fog.No wind93%30.41 "Hg0 mi
5:35 AM19 °FIce fog.No wind86%30.41 "Hg0 mi
5:15 AM19 °FIce fog.No wind93%30.41 "Hg0 mi
12:55 AM16 °FIce fog.No wind93%30.43 "Hg0 mi
12:35 AM16 °FIce fog.No wind86%30.43 "Hg0 mi
12:15 AM16 °FIce fog.No wind79%30.43 "Hg0 mi
11:55 PM
Thu, Feb 11
16 °FIce fog.No wind86%30.42 "Hg0 mi
11:35 PM16 °FIce fog.No wind86%30.42 "Hg0 mi
11:15 PM16 °FIce fog.No wind86%30.42 "Hg0 mi
10:55 PM16 °FIce fog.No wind86%30.42 "Hg0 mi
10:35 PM16 °FIce fog.No wind86%30.41 "Hg0 mi
9:55 PM16 °FLow clouds.No wind86%30.41 "Hg0 mi
9:35 PM16 °FLow clouds.No wind86%30.41 "Hg0 mi
9:15 PM16 °FPassing clouds.No wind79%30.42 "Hg2 mi
8:47 PM14 °FIce fog.No wind85%30.42 "Hg1 mi
Weather by CustomWeather, © 2016

See weather overviewHow to use our weather pages